"Pseudo-MPEC" for v10oct5

Created 2025 Oct 27 9:35:20 UT using Find_Orb

Click here for an explanation of pseudo-MPECs

 
 Astrometry: 
     v10oct5*2C2025 10 09.99094 15 37 49.434-23 53 28.08   ~AAJ5 21.2 rVNEOCPW84
     v10oct5 2C2025 10 09.99318 15 37 50.225-23 53 25.19   ~AAJ5 21.3 rVNEOCPW84

Station data:
(W84) Cerro Tololo-DECam  (S30.169594 W70.806420)  Chile.  Observer S. S.
   Sheppard. Measurer S. Deen. 4.0-m reflector + CCD.

Orbital elements:  v10oct5
   Perihelion 2025 Nov 20.066817 +/- 41.9 TT =  1:36:12.9 (JD 2460999.566817)
Epoch 2025 Oct 10.0 TT = JDT 2460958.5   Earth MOID: 0.3058   Ve: 0.0317
M 225.936937453 +/- 100             (J2000 ecliptic)             AutoNEOCP
n   3.264510674 +/- 1.73            Peri.  154.059694 +/- 100
a   0.450046429 +/- 0.159           Node   333.208485 +/- 52
e   0.59931448 +/- 0.255            Incl.  161.090282 +/- 60
P   0.302/110.275d         H 19.53  G  0.15   U 13.1  SR
q 0.180327084 +/- 0.28    Q 0.719765774 +/- 7.03
From 2 observations 2025 Oct. 9 (3.2 min); mean residual 0".00
Residuals in arcseconds: 
251009 W84  .00   .00     251009 W84  .00   .00     

Ephemerides (geocentric):
Date (UTC) HH   RA             Dec           delta  r     elong  mag " sig PA
---- --------  ------------   ------------  ------ ------ -----  --- --------
2025 10 27 10  16 16 13.337   -18 58 08.25  .98288 .54042  31.7 20.8  22d 111
2025 10 27 11  16 16 12.973   -18 57 34.87  .98377 .53991  31.7 20.8  22d 111
2025 10 27 12  16 16 12.588   -18 57 01.51  .98467 .53941  31.6 20.8  22d 111
2025 10 27 13  16 16 12.183   -18 56 28.17  .98557 .53890  31.6 20.8  22d 111
2025 10 27 14  16 16 11.758   -18 55 54.87  .98646 .53840  31.5 20.8  22d 111
2025 10 27 15  16 16 11.313   -18 55 21.59  .98736 .53789  31.5 20.8  22d 111
2025 10 27 16  16 16 10.847   -18 54 48.34  .98825 .53739  31.5 20.8  22d 111
2025 10 27 17  16 16 10.361   -18 54 15.12  .98914 .53688  31.4 20.8  22d 111
2025 10 27 18  16 16 09.855   -18 53 41.92  0.9900 .53637  31.4 20.8  22d 111
2025 10 27 19  16 16 09.328   -18 53 08.76  0.9909 .53586  31.3 20.8  22d 111
2025 10 27 20  16 16 08.782   -18 52 35.61  0.9918 .53535  31.3 20.8  22d 111
2025 10 27 21  16 16 08.215   -18 52 02.50  0.9927 .53484  31.2 20.8  22d 111
2025 10 27 22  16 16 07.628   -18 51 29.41  0.9936 .53433  31.2 20.8  22d 111
2025 10 27 23  16 16 07.020   -18 50 56.35  0.9945 .53382  31.1 20.8  22d 111
2025 10 28 00  16 16 06.393   -18 50 23.32  0.9954 .53330  31.1 20.8  22d 111
2025 10 28 01  16 16 05.746   -18 49 50.31  0.9963 .53279  31.1 20.8  22d 111
2025 10 28 02  16 16 05.078   -18 49 17.33  0.9971 .53227  31.0 20.7  22d 111
2025 10 28 03  16 16 04.390   -18 48 44.38  0.9980 .53176  31.0 20.7  23d 111
2025 10 28 04  16 16 03.682   -18 48 11.45  0.9989 .53124  30.9 20.7  23d 111
2025 10 28 05  16 16 02.954   -18 47 38.54  0.9998 .53072  30.9 20.7  23d 111
2025 10 28 06  16 16 02.206   -18 47 05.67  1.0007 .53020  30.8 20.7  23d 111
2025 10 28 07  16 16 01.438   -18 46 32.82  1.0016 .52968  30.8 20.7  23d 111
2025 10 28 08  16 16 00.649   -18 45 59.99  1.0024 .52916  30.7 20.7  23d 111
2025 10 28 09  16 15 59.841   -18 45 27.19  1.0033 .52864  30.7 20.7  23d 111
2025 10 28 10  16 15 59.013   -18 44 54.42  1.0042 .52812  30.7 20.7  23d 111
2025 10 28 11  16 15 58.164   -18 44 21.67  1.0051 .52760  30.6 20.7  23d 111
2025 10 28 12  16 15 57.295   -18 43 48.95  1.0059 .52708  30.6 20.7  23d 111
2025 10 28 13  16 15 56.407   -18 43 16.25  1.0068 .52655  30.5 20.7  23d 111
2025 10 28 14  16 15 55.498   -18 42 43.58  1.0077 .52603  30.5 20.7  23d 111
2025 10 28 15  16 15 54.569   -18 42 10.94  1.0086 .52550  30.4 20.7  23d 111
2025 10 28 16  16 15 53.621   -18 41 38.31  1.0094 .52497  30.4 20.7  23d 111
2025 10 28 17  16 15 52.652   -18 41 05.72  1.0103 .52445  30.3 20.7  23d 111
2025 10 28 18  16 15 51.663   -18 40 33.15  1.0112 .52392  30.3 20.7  23d 111
2025 10 28 19  16 15 50.654   -18 40 00.60  1.0120 .52339  30.2 20.7  23d 111
2025 10 28 20  16 15 49.625   -18 39 28.08  1.0129 .52286  30.2 20.7  23d 111
2025 10 28 21  16 15 48.577   -18 38 55.58  1.0138 .52233  30.1 20.7  23d 111
2025 10 28 22  16 15 47.508   -18 38 23.11  1.0146 .52179  30.1 20.7  23d 111
2025 10 28 23  16 15 46.419   -18 37 50.66  1.0155 .52126  30.1 20.7  23d 111
2025 10 29 00  16 15 45.310   -18 37 18.23  1.0164 .52073  30.0 20.7  23d 111
2025 10 29 01  16 15 44.181   -18 36 45.83  1.0172 .52019  30.0 20.7  23d 111
2025 10 29 02  16 15 43.032   -18 36 13.46  1.0181 .51966  29.9 20.7  23d 111
2025 10 29 03  16 15 41.864   -18 35 41.10  1.0190 .51912  29.9 20.7  23d 111
2025 10 29 04  16 15 40.675   -18 35 08.78  1.0198 .51859  29.8 20.7  23d 111
2025 10 29 05  16 15 39.466   -18 34 36.47  1.0207 .51805  29.8 20.7  23d 111
2025 10 29 06  16 15 38.237   -18 34 04.19  1.0215 .51751  29.7 20.7  24d 111
2025 10 29 07  16 15 36.989   -18 33 31.94  1.0224 .51697  29.7 20.7  24d 111
2025 10 29 08  16 15 35.720   -18 32 59.70  1.0232 .51643  29.6 20.7  24d 111
2025 10 29 09  16 15 34.431   -18 32 27.49  1.0241 .51589  29.6 20.7  24d 111